This demonstration page uses our WeatherBlox Daily Observations layout. Learn more.

Left ArrowRight Arrow

Hourly Observations for February 13, 2016

Temp ( °F °C ) Dew Point ( °F °C ) Humidity (%) Winds ( mph kmh ) Pressure ( in mb ) Visibility ( mi km ) Precip ( " mm )
12:51 am 00:51 Clear 51 10.6 18 -7.8 27 27 NE 7 11 30.08 1019 10 16 N/A
1:51 am 01:51 Clear 46 7.8 20 -6.7 35 35 NW 5 7 30.10 1019 10 16 N/A
2:51 am 02:51 Clear 45 7.2 20 -6.7 37 37 N N/A 30.09 1019 10 16 N/A
3:51 am 03:51 Clear 44 6.7 19 -7.2 37 37 NW 3 6 30.09 1019 10 16 N/A
4:51 am 04:51 Clear 43 6.1 20 -6.7 40 40 W 3 6 30.09 1019 10 16 N/A
5:51 am 05:51 Clear 37 2.8 19 -7.2 48 48 E 3 6 30.12 1020 10 16 N/A
6:51 am 06:51 Clear 50 10 18 -7.8 28 28 ESE 14 22 30.13 1020 10 16 N/A
7:51 am 07:51 Sunny 51 10.6 19 -7.2 28 28 ESE 10 17 30.14 1021 10 16 N/A
8:51 am 08:51 Sunny 57 13.9 20 -6.7 24 24 ESE 10 17 30.14 1021 10 16 N/A
9:51 am 09:51 Sunny 62 16.7 21 -6.1 21 21 ENE 6 9 30.12 1020 10 16 N/A
10:51 am 10:51 Sunny 65 18.3 20 -6.7 18 18 S 8 13 30.11 1020 10 16 N/A
11:51 am 11:51 Sunny 70 21.1 18 -7.8 14 14 SE 7 11 30.07 1018 10 16 N/A
12:51 pm 12:51 Sunny 73 22.8 17 -8.3 12 12 S 5 7 30.04 1017 10 16 N/A
1:51 pm 13:51 Sunny 75 23.9 13 -10.6 9 9 N N/A 29.99 1016 10 16 N/A
2:51 pm 14:51 Sunny 77 25 14 -10 9 9 VRB 3 6 29.95 1014 10 16 N/A
3:51 pm 15:51 Sunny 77 25 12 -11.1 8 8 N N/A 29.93 1014 10 16 N/A
4:51 pm 16:51 Sunny 78 25.6 14 -10 9 9 W 7 11 29.93 1013 10 16 N/A
5:51 pm 17:51 Sunny 72 22.2 15 -9.4 11 11 WNW 7 11 29.95 1014 10 16 N/A
6:51 pm 18:51 Clear 62 16.7 19 -7.2 19 19 N 6 9 29.95 1014 10 16 N/A
7:51 pm 19:51 Clear 62 16.7 19 -7.2 19 19 NW 7 11 29.96 1015 10 16 N/A
8:51 pm 20:51 Clear 55 12.8 20 -6.7 25 25 NW 9 15 29.96 1015 10 16 N/A
9:51 pm 21:51 Clear 57 13.9 19 -7.2 23 23 N 8 13 29.95 1014 10 16 N/A
10:51 pm 22:51 Clear 50 10 20 -6.7 30 30 SE 6 9 29.97 1015 10 16 N/A
11:51 pm 23:51 Clear 49 9.4 20 -6.7 32 32 SE 6 9 29.96 1015 10 16 N/A

Powered by AerisWeather